CW3783 Weather Reports


Display with metric or nautical units.
time (UTC)temp
F
wind
direction
speed
MPH
gust
MPH
rain 1hr
in
rain 24hr
in
rain mn
in
humidity
%
barometer
mb
20260904092306 72 109 1.0 3.0 0.00 0.06 0.03 95 1011.1
20260904091803 72 23 2.0 3.0 0.00 0.06 0.03 94 1011.2
20260904091303 72 23 1.0 2.0 0.00 0.06 0.03 94 1011.1
20260904090803 72 23 1.0 2.0 0.00 0.06 0.03 94 1011.1
20260904085804 72 23 2.0 3.0 0.00 0.06 0.03 94 1011.2
20260904084804 72 23 2.0 3.0 0.00 0.06 0.03 94 1011.3
20260904084304 72 23 2.0 3.0 0.00 0.06 0.03 94 1011.3
20260904083804 72 280 0.0 3.0 0.00 0.06 0.03 94 1011.3
20260904083304 72 280 0.0 3.0 0.00 0.06 0.03 94 1011.3
20260904082803 72 219 2.0 3.0 0.00 0.06 0.03 94 1011.3
20260904082306 72 236 2.0 3.0 0.00 0.06 0.03 94 1011.3
20260904081804 72 216 2.0 3.0 0.00 0.06 0.03 94 1011.3
20260904081303 72 235 3.0 5.0 0.00 0.06 0.03 94 1011.3
20260904080304 72 198 3.0 6.0 0.00 0.06 0.03 94 1011.5
20260904075803 72 219 2.0 3.0 0.00 0.06 0.03 93 1011.5
20260904073803 72 181 3.0 7.0 0.00 0.06 0.03 93 1011.7
20260904073304 72 225 2.0 3.0 0.00 0.06 0.03 93 1011.6
20260904072804 72 225 2.0 3.0 0.00 0.06 0.03 93 1011.4
20260904071304 72 225 2.0 3.0 0.00 0.06 0.03 93 1011.2
20260904070303 72 185 2.0 3.0 0.00 0.06 0.03 92 1011.2
20260904065804 72 198 2.0 3.0 0.00 0.06 0.03 92 1011.2
20260904065306 72 198 2.0 3.0 0.00 0.06 0.03 92 1011.2
20260904064303 72 196 3.0 5.0 0.00 0.06 0.03 92 1011.0
20260904063804 72 199 2.0 7.0 0.00 0.06 0.03 92 1010.9
20260904062803 72 189 2.0 5.0 0.00 0.06 0.03 92 1010.7
20260904062306 72 192 3.0 5.0 0.00 0.06 0.03 91 1010.7
20260904061803 72 186 2.0 3.0 0.00 0.06 0.03 91 1010.8
20260904061304 72 220 2.0 3.0 0.00 0.06 0.03 91 1010.9
20260904060805 72 238 1.0 3.0 0.00 0.06 0.03 91 1010.8
20260904055803 72 247 3.0 7.0 0.00 0.06 0.03 91 1010.9
20260904055306 72 265 2.0 6.0 0.00 0.06 0.03 91 1010.9
20260904054803 72 295 3.0 8.0 0.00 0.06 0.03 91 1010.9
20260904054305 73 259 2.0 3.0 0.00 0.06 0.03 91 1011.0
20260904053804 73 274 2.0 8.0 0.00 0.06 0.03 91 1011.0
20260904053304 73 280 7.0 12.0 0.00 0.06 0.03 91 1010.8
20260904052804 73 288 3.0 6.0 0.00 0.06 0.03 91 1010.8
20260904052307 73 210 5.0 6.0 0.00 0.06 0.03 90 1010.8
20260904051804 73 224 3.0 9.0 0.01 0.06 0.03 90 1010.8
20260904051303 73 268 2.0 10.0 0.03 0.06 0.03 90 1011.1
20260904050804 73 243 5.0 12.0 0.03 0.06 0.03 90 1011.3
20260904050304 73 229 4.0 12.0 0.03 0.06 0.03 89 1011.2
20260904045804 73 236 6.0 12.0 0.00 0.06 0.03 89 1011.2
20260904045306 74 218 5.0 10.0 0.00 0.06 0.03 88 1011.2
20260904044304 74 203 9.0 12.0 0.00 0.06 0.03 87 1011.1
20260904043804 75 266 7.0 13.0 0.00 0.06 0.03 86 1011.1
20260904043303 75 298 10.0 14.0 0.00 0.06 0.03 86 1011.1
20260904042803 75 303 7.0 14.0 0.00 0.06 0.03 85 1011.3
20260904041804 77 325 13.0 26.0 0.02 0.05 0.02 83 1012.2
20260904041304 77 311 14.0 25.0 0.00 0.03 0.00 82 1012.3
20260904040304 78 314 13.0 21.0 0.00 0.03 0.00 79 1011.7
20260904035804 78 330 8.0 16.0 0.00 0.03 0.03 80 1011.6
20260904035306 78 301 7.0 12.0 0.00 0.03 0.03 79 1010.9
20260904034804 78 302 8.0 13.0 0.00 0.03 0.03 79 1011.0
20260904034303 78 307 8.0 12.0 0.00 0.03 0.03 78 1011.0
20260904033303 80 309 9.0 16.0 0.00 0.03 0.03 78 1011.2
20260904031804 82 300 9.0 22.0 0.00 0.03 0.03 76 1011.9
20260904031303 82 313 12.0 28.0 0.00 0.03 0.03 78 1012.3
20260904030805 83 322 13.0 23.0 0.00 0.03 0.03 83 1012.4
20260904030304 83 324 4.0 7.0 0.00 0.03 0.03 83 1011.8
20260904025804 83 302 2.0 3.0 0.00 0.03 0.03 83 1011.7
20260904025306 83 271 1.0 3.0 0.00 0.03 0.03 82 1011.6
20260904024804 83 233 1.0 3.0 0.00 0.03 0.03 82 1011.6
20260904024304 83 295 1.0 7.0 0.00 0.03 0.03 82 1011.7
20260904023804 83 262 1.0 3.0 0.00 0.03 0.03 82 1011.6
20260904022306 83 287 1.0 3.0 0.00 0.03 0.03 82 1011.7
20260904021805 83 239 1.0 3.0 0.00 0.03 0.03 81 1011.5
20260904021304 83 231 2.0 3.0 0.00 0.03 0.03 81 1011.5
20260904020303 83 236 2.0 5.0 0.00 0.03 0.03 81 1011.5
20260904015804 83 213 2.0 7.0 0.00 0.03 0.03 81 1011.6
20260904014803 83 232 3.0 6.0 0.00 0.03 0.03 80 1011.6
20260904014304 83 245 1.0 3.0 0.00 0.03 0.03 80 1011.7
20260904013804 83 245 1.0 3.0 0.00 0.03 0.03 80 1011.5
20260904013303 83 225 1.0 3.0 0.00 0.03 0.03 80 1011.4
20260904012803 84 225 2.0 3.0 0.00 0.03 0.03 79 1011.3
20260904012306 84 225 1.0 3.0 0.00 0.03 0.03 79 1011.3
20260904011803 84 214 2.0 3.0 0.00 0.03 0.03 79 1011.2
20260904011303 84 229 2.0 3.0 0.00 0.03 0.03 79 1011.4
20260904010803 84 211 2.0 3.0 0.00 0.03 0.03 78 1011.4
20260904010304 84 234 2.0 3.0 0.00 0.03 0.03 78 1011.5
20260904005804 84 221 2.0 3.0 0.00 0.03 0.03 78 1011.7
20260904005306 84 212 2.0 5.0 0.00 0.03 0.03 77 1011.7
20260904004805 85 227 3.0 6.0 0.00 0.03 0.03 77 1011.8
20260904003305 85 230 3.0 6.0 0.00 0.03 0.03 75 1012.0
20260904002805 85 291 1.0 3.0 0.00 0.03 0.03 75 1012.0
20260904002306 85 291 2.0 3.0 0.00 0.03 0.03 74 1012.0
20260904001805 86 291 2.0 3.0 0.00 0.03 0.03 74 1012.1
20260904001305 86 243 1.0 3.0 0.00 0.03 0.03 74 1012.1
20260904000804 86 233 2.0 3.0 0.00 0.03 0.03 74 1012.1
20260904000304 86 253 2.0 3.0 0.00 0.03 0.03 73 1012.0
20260903235804 86 302 2.0 7.0 0.00 0.03 0.03 73 1011.9
20260903235305 86 278 2.0 3.0 0.00 0.03 0.03 73 1011.7
20260903234805 86 290 1.0 3.0 0.00 0.03 0.03 72 1011.6
20260903234305 87 258 2.0 5.0 0.00 0.03 0.03 72 1011.5
20260903233805 87 245 1.0 3.0 0.00 0.03 0.03 72 1011.5
20260903233305 87 245 2.0 3.0 0.00 0.03 0.03 71 1011.4
20260903232804 87 241 1.0 3.0 0.00 0.03 0.03 71 1011.4
20260903232306 87 241 1.0 3.0 0.00 0.03 0.03 71 1011.3
20260903231805 88 243 2.0 3.0 0.00 0.03 0.03 70 1011.2
20260903231305 88 243 3.0 7.0 0.00 0.03 0.03 70 1011.2
20260903230804 88 274 1.0 3.0 0.00 0.03 0.03 70 1011.3
20260903230305 88 274 2.0 3.0 0.00 0.03 0.03 69 1011.3
20260903225804 88 331 1.0 5.0 0.00 0.03 0.03 69 1011.4
20260903225306 88 284 2.0 3.0 0.00 0.03 0.03 69 1011.2
20260903224805 89 284 2.0 3.0 0.00 0.03 0.03 68 1011.2
20260903224305 89 280 3.0 5.0 0.00 0.03 0.03 68 1011.0
20260903223805 89 240 2.0 8.0 0.00 0.03 0.03 67 1011.1
20260903223304 89 278 2.0 5.0 0.00 0.03 0.03 67 1011.2
20260903222805 89 250 3.0 8.0 0.00 0.03 0.03 67 1011.2
20260903222306 90 230 2.0 7.0 0.00 0.03 0.03 66 1011.1
20260903221804 90 208 3.0 6.0 0.00 0.03 0.03 65 1011.1
20260903221305 90 263 2.0 7.0 0.00 0.03 0.03 65 1011.1
20260903220805 90 205 1.0 5.0 0.00 0.03 0.03 65 1011.2
20260903220304 90 252 5.0 12.0 0.00 0.03 0.03 65 1011.1
20260903215306 90 224 3.0 7.0 0.00 0.03 0.03 65 1011.2
20260903214804 90 255 2.0 6.0 0.00 0.03 0.03 65 1011.2
20260903213804 90 284 2.0 7.0 0.00 0.03 0.03 65 1011.3
20260903213304 91 274 3.0 3.0 0.00 0.03 0.03 64 1011.3
20260903212804 91 273 5.0 7.0 0.00 0.03 0.03 64 1011.3
20260903212306 91 220 2.0 5.0 0.00 0.03 0.03 64 1011.2
20260903211805 90 214 2.0 7.0 0.00 0.03 0.03 64 1011.3
20260903211305 90 278 3.0 7.0 0.00 0.03 0.03 65 1011.2
20260903210805 90 246 3.0 8.0 0.00 0.03 0.03 64 1011.2
20260903210304 90 293 5.0 7.0 0.00 0.03 0.03 64 1011.2
20260903205804 90 263 6.0 12.0 0.00 0.03 0.03 64 1011.3
20260903205306 90 274 5.0 10.0 0.00 0.03 0.03 64 1011.2
20260903204805 90 269 5.0 12.0 0.00 0.03 0.03 65 1011.4
20260903204304 90 294 3.0 9.0 0.00 0.03 0.03 65 1011.5
20260903203804 90 284 5.0 12.0 0.00 0.03 0.03 66 1011.6
20260903203305 89 274 3.0 8.0 0.00 0.03 0.03 65 1011.7
20260903202806 89 295 6.0 10.0 0.00 0.03 0.03 66 1011.8
20260903200804 88 276 5.0 12.0 0.00 0.03 0.03 66 1012.0
20260903200304 88 219 3.0 12.0 0.00 0.03 0.03 67 1012.1
20260903195805 88 227 2.0 6.0 0.00 0.03 0.03 68 1012.1
20260903195306 88 281 2.0 5.0 0.00 0.03 0.03 68 1012.2
20260903194805 87 279 4.0 9.0 0.00 0.03 0.03 70 1012.4
20260903194305 87 253 2.0 3.0 0.00 0.03 0.03 70 1012.4
20260903193306 86 322 3.0 7.0 0.00 0.03 0.03 71 1012.6
20260903192804 86 289 2.0 7.0 0.00 0.03 0.03 70 1012.7
20260903192306 86 289 3.0 7.0 0.00 0.03 0.03 69 1012.7
20260903191804 87 240 6.0 12.0 0.00 0.03 0.03 69 1012.9
20260903191304 87 286 6.0 10.0 0.00 0.03 0.03 69 1012.9
20260903190804 87 288 4.0 9.0 0.00 0.03 0.03 69 1013.0
20260903190304 87 248 2.0 8.0 0.00 0.03 0.03 70 1013.1
20260903185804 87 281 5.0 12.0 0.00 0.03 0.03 69 1013.0
20260903185306 87 248 6.0 14.0 0.00 0.03 0.03 68 1013.0
20260903184805 87 275 6.0 12.0 0.00 0.03 0.03 71 1013.1
20260903184305 87 307 5.0 9.0 0.00 0.03 0.03 71 1013.0
20260903183804 86 301 1.0 3.0 0.00 0.03 0.03 72 1013.0
20260903183304 86 243 5.0 10.0 0.00 0.03 0.03 72 1013.0
20260903182804 85 232 5.0 12.0 0.00 0.03 0.03 74 1013.1
20260903182306 85 253 4.0 12.0 0.00 0.03 0.03 74 1013.1
20260903181804 85 232 5.0 8.0 0.00 0.03 0.03 75 1013.1
20260903181305 84 263 4.0 8.0 0.00 0.03 0.03 76 1013.0
20260903180805 83 280 5.0 14.0 0.00 0.03 0.03 77 1013.1
20260903180304 83 269 5.0 12.0 0.00 0.03 0.03 78 1013.4
20260903175804 82 277 5.0 12.0 0.00 0.03 0.03 80 1013.5
20260903175306 82 287 6.0 10.0 0.00 0.04 0.03 82 1013.5
20260903174305 81 218 5.0 9.0 0.00 0.04 0.03 86 1013.5
20260903173805 80 267 2.0 5.0 0.00 0.04 0.03 87 1013.7
20260903173305 80 249 1.0 10.0 0.00 0.04 0.03 88 1013.8
20260903172804 79 125 4.0 12.0 0.00 0.06 0.03 90 1013.8
20260903171304 78 255 3.0 8.0 0.02 0.15 0.03 91 1014.1
20260903170805 78 252 2.0 7.0 0.02 0.24 0.03 91 1014.0
20260903170305 78 204 2.0 10.0 0.02 0.38 0.03 92 1014.0
20260903165805 78 253 3.0 10.0 0.02 0.38 0.03 92 1013.9
20260903165306 78 225 5.0 10.0 0.02 0.38 0.03 92 1013.9
20260903164805 77 230 6.0 12.0 0.03 0.38 0.03 92 1014.1
20260903164305 78 242 5.0 13.0 0.03 0.38 0.03 91 1014.2
20260903163805 78 227 5.0 10.0 0.03 0.38 0.03 91 1014.2
20260903162804 78 278 2.0 9.0 0.03 0.38 0.03 90 1013.8
20260903162306 78 164 1.0 6.0 0.03 0.38 0.03 90 1014.1
20260903161804 78 208 1.0 3.0 0.02 0.37 0.02 90 1014.8
20260903161306 78 205 3.0 5.0 0.01 0.36 0.01 89 1015.1
20260903160805 79 178 2.0 5.0 0.01 0.36 0.01 89 1015.0
20260903160304 79 169 1.0 3.0 0.01 0.36 0.01 88 1015.1
20260903155805 79 291 1.0 7.0 0.01 0.36 0.01 88 1015.6
20260903155306 79 282 2.0 7.0 0.01 0.36 0.01 88 1016.0
20260903154805 79 331 4.0 12.0 0.00 0.35 0.00 87 1016.2
20260903154304 80 302 7.0 14.0 0.00 0.35 0.00 87 1016.7
20260903153804 80 321 9.0 17.0 0.00 0.35 0.00 87 1016.8
20260903152804 80 290 5.0 8.0 0.00 0.35 0.00 87 1015.6
20260903152306 80 348 2.0 3.0 0.00 0.35 0.00 87 1015.2
20260903151805 80 295 4.0 10.0 0.00 0.35 0.00 88 1015.2
20260903151305 80 261 3.0 8.0 0.00 0.35 0.00 89 1015.4
20260903150805 80 284 4.0 9.0 0.00 0.35 0.00 89 1015.4
20260903150305 79 224 2.0 10.0 0.00 0.35 0.00 89 1015.3
20260903145805 79 206 3.0 12.0 0.00 0.35 0.00 90 1015.1
20260903144805 79 250 4.0 10.0 0.00 0.35 0.00 91 1014.9
20260903143805 78 233 1.0 6.0 0.00 0.35 0.00 92 1014.7
20260903143305 78 249 2.0 6.0 0.00 0.35 0.00 93 1014.5
20260903142804 77 244 5.0 10.0 0.00 0.35 0.00 93 1014.6
20260903141804 77 204 2.0 12.0 0.00 0.35 0.00 94 1014.6
20260903141305 77 223 4.0 10.0 0.00 0.35 0.00 95 1014.7
20260903140805 77 213 3.0 9.0 0.00 0.35 0.00 95 1014.6
20260903140305 77 189 5.0 10.0 0.00 0.35 0.00 96 1014.4
20260903135804 76 192 5.0 10.0 0.00 0.35 0.00 96 1014.4
20260903135306 76 181 6.0 12.0 0.00 0.35 0.00 96 1014.4
20260903134805 76 174 3.0 7.0 0.00 0.35 0.00 96 1014.5
20260903134305 75 211 6.0 10.0 0.00 0.35 0.00 96 1014.6
20260903133805 75 197 5.0 10.0 0.00 0.35 0.00 96 1014.1
20260903133305 75 171 5.0 9.0 0.00 0.35 0.00 96 1014.2
20260903132804 75 158 5.0 8.0 0.00 0.35 0.00 96 1014.0
20260903132306 75 141 2.0 3.0 0.00 0.35 0.00 96 1014.6
20260903131805 75 196 0.0 5.0 0.00 0.35 0.00 96 1015.2
20260903131304 75 239 3.0 5.0 0.00 0.35 0.00 96 1015.2
20260903130805 75 190 4.0 8.0 0.00 0.35 0.00 96 1015.0
20260903130304 75 196 4.0 7.0 0.00 0.35 0.00 96 1015.0
20260903125804 75 198 4.0 7.0 0.00 0.35 0.00 96 1015.3
20260903125305 75 203 3.0 5.0 0.00 0.35 0.00 96 1015.5
20260903124804 75 174 3.0 3.0 0.00 0.35 0.00 96 1015.6
20260903124305 75 170 3.0 7.0 0.00 0.35 0.00 96 1015.7
20260903123805 75 190 3.0 7.0 0.00 0.35 0.00 96 1015.7
20260903123304 75 194 4.0 8.0 0.00 0.35 0.00 96 1015.8
20260903121804 74 185 1.0 3.0 0.00 0.35 0.00 96 1015.9
20260903121304 74 177 4.0 6.0 0.00 0.35 0.00 96 1015.9
20260903120805 74 117 1.0 3.0 0.00 0.35 0.00 96 1016.1
20260903120304 74 99 1.0 3.0 0.00 0.35 0.00 96 1016.1
20260903115804 74 99 1.0 3.0 0.00 0.35 0.00 96 1016.2
20260903114805 74 6 1.0 3.0 0.00 0.35 0.00 96 1016.5
20260903114304 74 6 2.0 3.0 0.00 0.35 0.00 96 1016.5
20260903113804 74 6 1.0 5.0 0.00 0.35 0.00 96 1016.8
20260903113304 74 10 4.0 7.0 0.00 0.35 0.00 96 1016.9
20260903112804 74 14 5.0 8.0 0.00 0.35 0.00 96 1016.9
20260903111804 74 1 5.0 12.0 0.00 0.35 0.00 96 1016.7
20260903111304 74 7 6.0 12.0 0.00 0.35 0.00 96 1016.7
20260903110804 74 2 8.0 12.0 0.00 0.35 0.00 96 1016.5
20260903105306 74 18 2.0 3.0 0.00 0.35 0.00 96 1015.7
20260903104806 74 43 2.0 3.0 0.00 0.35 0.00 96 1015.7
20260903104304 74 5 3.0 5.0 0.00 0.35 0.00 96 1015.8
20260903103804 74 13 3.0 5.0 0.00 0.35 0.00 96 1015.7
20260903103305 74 13 2.0 3.0 0.00 0.35 0.00 96 1015.5
20260903102306 74 13 1.0 2.0 0.00 0.35 0.00 96 1015.4
20260903101805 74 13 2.0 3.0 0.00 0.35 0.00 96 1015.5
20260903100804 74 13 1.0 2.0 0.00 0.35 0.00 96 1015.3
20260903100304 74 13 2.0 3.0 0.00 0.35 0.00 96 1015.4
20260903095806 73 24 0.0 2.0 0.00 0.35 0.00 96 1015.3
20260903095306 73 24 4.0 8.0 0.00 0.35 0.00 96 1015.4
20260903093804 73 2 6.0 10.0 0.00 0.35 0.00 96 1015.3
20260903093304 73 129 1.0 2.0 0.00 0.35 0.00 96 1014.8
20260903092805 73 129 1.0 3.0 0.00 0.35 0.00 96 1014.9